CAPE
136 8 0 0 6 120 0 0 67 0 0 0 0 0 0 0 0 0 0 0 0 0 0 0 0 0 0 0 0 0 0 0 0 0 0 140 344 279 672 881 881 1221 1215 1410 1624 2490 2009 1835 1992 2288 2556 2707 2736 2717 2680 2694 2660 2626 2568 2520 2378 2199 2237 2106 2000 1917 1761 1596 1443 1010 1017 1001 792 656 810 796 738 685 644 588 617 592 654 596 559 572 455 385 530 540 330 295 2113 1203 916 741 710
0 0 0 0 14 4 95 4 27 0 0 0 0 0 0 0 0 0 0 0 0 0 0 0 0 0 0 0 0 0 0 0 0 0 0 472 1 52 449 756 675 852 1267 1109 1296 1834 2307 2342 1857 2196 2447 2626 2736 2719 2698 2702 2728 2609 2605 2706 2622 2336 2018 2132 2029 1842 1646 1542 1463 1194 863 882 868 768 813 858 797 821 756 664 657 613 639 612 504 525 620 489 430 398 234 247 1825 1240 1003 787 773
0 0 0 0 15 24 34 0 29 0 0 0 0 0 0 0 0 0 0 0 0 0 0 0 0 0 0 0 0 0 0 0 0 0 0 0 0 625 301 677 645 912 1117 1149 1269 1463 2142 2382 1787 2038 2450 2670 2699 2790 2875 2857 2773 2658 2722 2739 2712 2458 2234 1976 1711 1490 1431 1339 1321 1231 1091 975 901 878 797 887 880 958 838 716 737 686 665 560 466 386 451 564 558 504 267 246 1773 1297 1076 859 732
0 0 9 0 29 0 141 13 0 0 0 0 0 0 0 0 0 0 0 0 0 0 0 0 0 0 0 0 0 0 0 0 0 0 0 0 44 73 282 352 928 739 953 1239 1246 1273 1835 2154 2052 1803 2385 2637 2790 2800 2849 2865 2908 2804 2867 2883 2805 2676 2376 2046 1785 1596 1479 1406 1343 1204 1078 1009 932 869 823 986 898 1055 1124 859 736 687 702 748 736 542 356 446 636 661 525 388 1214 1444 1179 928 769
6 0 0 2 23 12 0 0 0 0 0 0 0 0 0 0 0 0 0 0 0 0 0 0 0 0 0 0 0 0 0 0 0 0 0 0 338 294 338 395 369 350 681 908 962 1119 1710 2973 1990 1851 2077 2534 2714 2816 2878 2828 2844 2776 2802 2749 2801 2677 2550 2195 1966 1658 1520 1396 1339 1197 1096 1052 956 888 855 900 951 980 1108 1134 1105 962 890 968 1203 1127 731 512 593 762 637 616 827 1458 1322 1173 915
0 0 0 0 55 0 0 0 0 0 0 0 0 0 0 0 0 0 0 0 0 0 0 0 0 0 0 0 0 0 0 0 0 0 0 96 426 227 304 355 2 0 22 584 764 940 1350 1902 1687 1722 2022 2316 2587 2730 2675 2847 2805 2736 2698 2509 2490 2480 2718 2377 1974 1729 1574 1307 1174 1196 1056 1082 1044 900 728 720 1107 1699 1674 1797 1083 1130 1439 1310 1390 1296 1115 817 627 750 776 842 789 1589 1475 1064 982
0 0 0 0 0 0 7 0 0 0 0 0 0 0 0 0 0 0 0 0 0 0 0 0 0 0 0 0 0 0 0 0 0 0 106 119 244 307 212 1 0 0 0 211 719 963 1325 1520 1465 1480 1743 2016 2408 2604 2570 2670 2731 2690 2623 2624 2582 2520 2610 2540 2112 1763 1523 1360 1041 1215 1178 1132 1088 956 876 1790 1794 1648 1486 1426 1452 1385 1312 1424 1523 1526 1386 1138 802 642 911 946 883 1425 1512 946 859
0 0 0 0 0 0 0 0 0 0 0 0 0 0 0 0 0 0 0 0 0 0 0 0 0 0 0 0 0 0 0 0 0 0 0 0 0 0 0 0 0 0 0 60 773 878 978 1004 1118 1289 1402 1742 2045 2247 2289 2516 2591 2657 2659 2672 2557 2598 2384 2378 2309 2109 1725 1355 1172 1132 1116 1060 1186 1294 1576 1848 1657 1588 1492 1360 1526 1571 1460 1468 1404 1446 1351 1114 992 780 804 1090 1825 1508 834 1094 889
0 0 0 0 0 0 0 0 0 0 0 0 0 0 0 0 0 0 0 0 0 0 0 0 0 0 0 0 0 0 0 0 0 0 0 0 0 0 0 0 0 0 8 251 536 754 1075 946 737 854 1104 1505 1909 2167 2377 2567 2684 2708 2466 2507 2596 2440 2336 2202 1894 2372 2221 1723 1176 1196 1209 1245 1382 1579 1831 1952 1720 1525 1380 1352 1426 1570 1565 1473 1476 1513 1464 1361 944 864 775 1936 1532 1070 812 979 1035
0 0 0 0 0 0 0 0 0 0 0 0 0 0 0 0 0 0 0 0 0 0 0 0 0 0 0 0 0 0 0 0 0 0 0 0 0 0 0 0 5 226 224 180 657 580 674 811 564 487 687 1071 1558 1957 2243 2472 2553 2612 2538 2476 2449 2221 2374 2215 2221 1862 1902 2042 2216 1937 1769 1938 2411 2269 2160 1933 1732 1522 1391 1415 1486 1586 1546 1341 1316 1487 1460 1318 892 548 764 2106 1385 1011 819 636 935
0 0 0 0 0 0 0 0 0 0 0 0 0 0 0 0 0 0 0 0 0 0 0 0 0 0 0 0 0 0 0 0 0 0 0 0 0 0 0 0 50 367 248 353 622 586 501 616 536 404 513 772 1102 1572 1929 2189 2348 2323 2419 2287 2300 2087 2196 2189 2120 1675 1402 2039 2282 2388 2557 2537 2276 2169 2081 1795 1586 1436 1451 1445 1522 1654 1552 1273 1322 1439 1160 976 934 962 1207 1691 1364 1226 825 668 680
0 0 0 0 0 0 0 0 0 0 0 0 0 0 0 0 0 0 0 0 0 0 0 0 0 0 0 0 0 0 0 0 0 0 0 0 0 0 0 0 0 114 257 389 391 518 494 504 736 433 405 767 1014 1110 1375 1612 1878 2033 2152 2167 2173 2180 2122 2020 1956 1789 1818 1845 1968 2205 2360 2343 2184 2140 1963 1713 1518 1431 1414 1569 1609 1510 1391 1451 1400 1344 1299 975 720 937 1210 1214 1144 1020 826 722 738
0 0 0 0 0 0 0 0 0 0 0 0 0 0 0 0 0 0 0 0 0 0 0 0 0 0 0 0 0 0 0 0 0 0 0 0 0 0 0 0 0 67 155 304 360 324 457 521 474 722 644 513 872 1099 1234 1414 1596 1716 1768 1994 2009 1928 1912 1884 1709 1436 1434 1738 1783 2005 2100 2030 1939 1910 1856 1722 1543 1512 1512 1575 1563 1426 1257 1422 1404 1315 1353 869 914 1429 1144 844 997 818 756 665 490
0 0 0 0 0 0 0 0 0 0 0 0 0 0 0 0 0 0 0 0 0 0 0 0 0 0 0 0 0 0 0 0 0 0 0 0 0 0 0 0 0 82 138 209 219 240 311 449 423 431 630 698 581 715 879 1265 1424 1602 1632 1579 1690 1622 1621 1706 1644 1592 1582 1656 1683 1805 1718 1547 1394 1318 1429 1522 1585 1569 1518 1562 1545 1655 1283 1352 1284 1307 1014 900 1056 1600 1136 886 851 741 661 584 478
0 0 0 0 0 0 0 0 0 0 0 0 0 0 0 0 0 0 0 0 0 0 0 0 0 0 0 0 0 0 0 0 0 0 0 0 0 0 10 0 6 73 110 126 49 153 243 275 409 435 386 534 774 890 871 936 797 1339 1512 1507 1400 1425 1346 1351 1267 1231 1375 1563 1520 1477 1512 1370 1298 1223 1238 1271 1317 1242 1126 1048 1100 1061 1050 1259 1075 1251 1056 874 1175 1327 1296 974 735 655 640 489 392
0 0 0 0 0 0 0 0 0 0 0 0 0 0 0 0 0 0 0 0 0 0 0 0 0 0 0 0 0 0 0 0 0 0 0 0 0 0 0 0 0 0 0 37 77 97 168 198 271 418 418 430 471 605 790 938 1054 842 910 1229 1276 1297 1209 1210 1147 1122 1094 1293 1514 1414 1293 1147 1131 1146 1015 1029 1023 1096 1067 1054 1050 941 792 965 941 1127 897 863 733 1074 875 932 898 590 523 424 298
0 0 0 0 0 0 0 0 0 0 0 0 0 0 0 0 0 0 0 0 0 0 0 0 0 0 0 0 0 0 0 0 0 0 0 0 0 0 0 0 0 0 0 0 0 0 0 93 147 262 370 371 357 461 591 740 952 1016 989 835 959 1172 1147 1169 1127 1017 974 975 1374 1354 1163 1018 1340 1350 1258 1180 1174 1079 1044 949 881 799 746 776 826 854 830 828 807 874 701 648 726 677 542 485 227
0 0 0 0 0 0 0 0 0 0 0 0 0 0 0 0 0 0 0 0 0 0 0 0 0 0 0 0 0 0 0 0 0 0 0 0 0 0 0 0 0 0 0 0 0 0 0 0 8 2 58 333 415 501 579 739 843 888 1219 1315 1165 1092 1070 1116 1159 1163 1119 1319 1264 1250 1241 1224 1158 938 578 1039 1117 1102 1072 952 818 736 697 724 711 787 847 846 931 881 632 684 510 596 496 347 234
0 0 0 0 0 0 0 0 0 0 0 0 0 0 0 0 0 0 0 0 0 0 0 0 0 0 0 0 0 0 0 0 0 0 0 0 0 0 0 0 0 0 0 0 0 0 0 0 0 0 0 64 261 404 471 537 620 639 662 895 989 1058 1165 1013 1095 1110 1152 997 1116 1410 1157 1121 880 742 539 778 700 737 1106 845 750 691 692 591 664 665 614 729 816 701 701 690 513 433 447 290 230
0 0 0 0 0 0 0 0 0 0 0 0 0 0 0 0 0 0 0 0 0 0 0 0 0 0 0 0 0 0 0 0 0 0 0 0 0 0 0 0 0 0 0 0 0 0 0 0 0 0 0 0 115 234 338 403 432 489 540 541 476 752 1036 1003 1048 1106 976 993 978 817 698 618 844 627 469 448 434 838 628 789 651 684 631 476 622 714 398 556 706 698 664 669 446 443 342 224 136
0 0 0 0 0 0 0 0 0 0 0 0 0 0 0 0 0 0 0 0 0 0 0 0 0 0 0 0 0 0 0 0 0 0 0 0 0 0 0 0 0 0 0 0 0 0 0 0 0 0 0 0 0 25 128 215 309 351 411 482 474 496 668 860 962 837 962 866 969 779 750 732 759 533 1014 813 991 862 673 602 553 621 606 593 481 685 499 486 579 606 477 429 449 281 240 229 171
0 0 0 0 0 0 0 0 0 0 0 0 0 0 0 0 0 0 0 0 0 0 0 0 0 0 0 0 0 0 0 0 0 0 0 0 0 0 0 0 0 0 0 0 0 0 0 0 0 0 0 0 0 0 0 19 98 264 336 382 497 472 620 656 789 862 806 763 811 853 708 539 701 456 761 468 874 575 624 748 680 611 725 579 397 598 552 431 372 434 415 320 325 390 189 40 89
0 0 0 0 0 0 0 0 0 0 0 0 0 0 0 0 0 0 0 0 0 0 0 0 0 0 0 0 0 0 0 0 0 0 0 0 0 0 0 0 0 0 0 0 0 0 0 0 0 0 0 0 0 0 0 0 7 114 271 310 346 443 606 663 785 790 832 762 988 964 922 580 580 440 720 746 841 374 742 382 702 594 656 631 455 500 566 369 176 374 382 268 248 189 112 0 113
0 0 0 0 0 0 0 0 0 0 0 0 0 0 0 0 0 0 0 0 0 0 0 0 0 0 0 0 0 0 0 0 0 0 0 0 0 0 0 0 0 0 0 0 0 0 0 0 0 0 0 0 0 0 0 0 0 21 126 167 273 275 471 640 738 797 896 670 884 1038 792 614 523 559 618 686 710 506 531 298 760 688 682 588 368 541 477 463 112 97 261 253 6 62 39 0 0
0 0 0 0 0 0 0 0 0 0 0 0 0 0 0 0 0 0 0 0 0 0 0 0 0 0 0 0 0 0 0 0 0 0 0 0 0 0 0 0 0 0 0 0 0 0 0 0 0 0 0 0 0 0 0 0 0 1 26 136 259 220 389 515 759 819 856 812 766 926 574 610 600 523 607 780 637 414 540 714 816 759 566 468 373 524 375 205 120 0 0 8 0 1 22 0 0
0 0 0 0 0 0 0 0 0 0 0 0 0 0 0 0 0 0 0 0 0 0 0 0 0 0 0 0 0 0 0 0 0 0 0 0 0 0 0 0 0 0 0 0 0 0 0 0 0 0 0 0 0 0 0 0 0 2 9 45 137 187 356 477 584 808 848 856 821 831 821 899 689 453 596 787 623 468 705 964 819 729 482 755 519 460 326 384 251 112 0 0 0 3 2 0 6
0 0 0 0 0 0 0 0 0 0 0 0 0 0 0 0 0 0 0 0 0 0 0 0 0 0 0 0 0 0 0 0 0 0 0 0 0 0 0 0 0 0 0 0 0 0 0 0 0 0 0 0 0 0 0 0 0 0 11 10 9 85 211 482 574 738 862 910 791 834 776 635 528 644 576 772 688 601 732 870 815 778 666 542 409 342 325 299 297 189 17 3 0 0 0 0 14
0 0 0 0 0 0 0 0 0 0 0 0 0 0 0 0 0 0 0 0 0 0 0 0 0 0 0 0 0 0 0 0 0 0 0 0 0 0 0 0 0 0 0 0 0 0 0 0 0 0 0 0 0 0 0 0 0 0 2 40 52 46 144 333 527 696 731 901 731 635 646 462 524 600 658 833 637 394 766 663 837 836 766 546 368 331 210 301 300 110 100 14 7 2 0 1 7
0 0 0 0 0 0 0 0 0 0 0 0 0 0 0 0 0 0 0 0 0 0 0 0 0 0 0 0 0 0 0 0 0 0 0 0 0 0 0 0 0 0 0 0 0 0 0 0 0 0 0 0 0 0 0 0 0 0 0 6 86 174 123 334 458 494 444 721 840 649 445 385 444 480 455 544 560 627 437 667 607 695 731 490 434 492 306 226 145 104 135 0 2 0 1 6 10
0 0 0 0 0 0 0 0 0 0 0 0 0 0 0 0 0 0 0 0 0 0 0 0 0 0 0 0 0 0 0 0 0 0 0 0 0 0 0 0 0 0 0 0 0 0 0 0 0 0 0 0 0 0 0 0 0 0 0 2 22 52 78 129 359 382 454 602 722 723 504 386 479 398 276 586 544 525 589 661 757 578 504 464 403 460 414 274 181 127 188 6 2 4 6 6 7
0 0 0 0 0 0 0 0 0 0 0 0 0 0 0 0 0 0 0 0 0 0 0 0 0 0 0 0 0 0 0 0 0 0 0 0 0 0 0 0 0 0 0 0 0 0 0 0 0 0 0 0 0 0 0 0 0 0 0 0 9 36 39 123 303 579 351 343 618 946 633 473 363 309 340 481 585 476 479 338 418 568 530 401 309 372 402 227 222 133 11 5 1 4 6 2 7
0 0 0 0 0 0 0 0 0 0 0 0 0 0 0 0 0 0 0 0 0 0 0 0 0 0 0 0 0 0 0 0 0 0 0 0 0 0 0 0 0 0 0 0 0 0 0 0 0 0 0 0 0 0 0 0 0 0 0 0 0 14 29 36 55 484 670 367 436 688 628 526 400 452 198 63 373 639 473 413 696 601 460 296 346 333 240 205 183 160 61 0 4 13 6 3 5
0 0 0 0 0 0 0 0 0 0 0 0 0 0 0 0 0 0 0 0 0 0 0 0 0 0 0 0 0 0 0 0 0 0 0 0 0 0 0 0 0 0 0 0 0 0 0 0 0 0 0 0 0 0 0 0 0 0 0 0 0 8 28 30 68 328 676 936 638 399 388 570 436 352 329 242 214 410 454 422 590 524 278 234 270 256 257 201 184 126 105 0 0 50 0 18 14
0 0 0 0 0 0 0 0 0 0 0 0 0 0 0 0 0 0 0 0 0 0 0 0 0 0 0 0 0 0 0 0 0 0 0 0 0 0 0 0 0 0 0 0 0 0 0 0 0 0 0 0 0 0 0 0 0 0 0 0 0 0 24 61 51 285 364 691 681 724 507 506 437 342 312 367 336 272 232 319 396 364 204 168 171 106 190 254 195 177 58 0 2 12 9 8 9
0 0 0 0 0 0 0 0 0 0 0 0 0 0 0 0 0 0 0 0 0 0 0 0 0 0 0 0 0 0 0 0 0 0 0 0 0 0 0 0 0 0 0 0 0 0 0 0 0 0 0 0 0 0 0 0 0 0 0 0 0 0 0 26 90 344 274 109 496 322 410 390 385 431 601 516 400 70 290 209 404 273 101 221 242 118 119 283 244 191 126 129 2 1 27 4 5
0 0 0 0 0 0 0 0 0 0 0 0 0 0 0 0 0 0 0 0 0 0 0 0 0 0 0 0 0 0 0 0 0 0 0 0 0 0 0 0 0 0 0 0 0 0 0 0 0 0 0 0 0 0 0 0 0 3 6 0 0 0 0 1 47 117 221 404 476 349 72 352 312 344 567 465 355 275 370 394 349 208 120 124 184 106 25 104 167 48 74 91 63 4 26 34 12
0 0 0 0 0 0 0 0 0 0 0 0 0 0 0 0 0 0 0 0 0 0 0 0 0 0 0 0 0 0 0 0 0 0 0 0 0 0 0 0 0 0 0 0 0 0 0 0 0 0 0 0 0 0 0 0 0 0 17 25 8 0 0 0 6 137 179 25 217 269 480 366 202 300 497 805 620 287 287 415 239 141 24 61 50 28 0 6 24 2 181 148 53 72 18 37 2
0 0 0 0 0 0 0 0 0 0 0 0 0 0 0 0 0 0 0 0 0 0 0 0 0 0 0 0 0 0 0 0 0 0 0 0 0 0 0 0 0 0 0 0 0 0 0 0 0 0 0 0 0 0 0 0 0 0 0 21 3 0 0 0 0 42 241 334 342 248 111 297 311 220 316 709 418 602 420 418 310 62 13 16 9 9 4 1 15 30 69 120 65 58 0 1 0
0 0 0 0 0 0 0 0 0 0 0 0 0 0 0 0 0 0 0 0 0 0 0 0 0 0 0 0 0 0 0 0 0 0 0 0 0 0 0 0 0 0 0 0 0 0 0 0 0 0 0 0 0 0 0 0 0 0 0 0 0 0 0 0 0 0 129 389 329 340 310 217 286 380 272 357 489 480 500 478 417 244 41 7 5 26 22 14 31 34 72 95 25 29 19 0 0
0 0 0 0 0 0 0 0 0 0 0 0 0 0 0 0 0 0 0 0 0 0 0 0 0 0 0 0 0 0 0 0 0 0 0 0 0 0 0 0 0 0 0 0 0 0 0 0 0 0 0 0 0 0 0 0 0 5 0 0 0 0 0 0 0 0 2 3 11 117 185 240 220 180 412 725 441 372 481 512 509 287 69 2 4 11 13 14 6 48 50 78 7 0 16 13 10
0 0 0 0 0 0 0 0 0 0 0 0 0 0 0 0 0 0 0 0 0 0 0 0 0 0 0 0 0 0 0 0 0 0 0 0 0 0 0 0 0 0 0 0 0 0 0 0 0 0 0 0 0 0 0 0 1 9 6 0 0 0 0 0 6 0 0 0 0 40 75 66 122 157 277 497 365 318 379 455 507 410 279 63 21 49 2 0 0 7 19 14 6 0 0 1 9
0 0 0 0 0 0 0 0 0 0 0 0 0 0 0 0 0 0 0 0 0 0 0 0 0 0 0 0 0 0 0 0 0 0 0 0 0 0 0 0 0 0 0 0 0 0 0 0 0 0 0 0 0 0 0 0 0 6 10 2 0 0 0 0 0 0 0 0 0 18 57 43 54 83 124 260 501 326 306 366 412 420 361 10 0 0 0 0 0 0 0 0 3 7 11 0 18
0 0 0 0 0 0 0 0 0 0 0 0 0 0 0 0 0 0 0 0 0 0 0 0 0 0 0 0 0 0 0 0 0 0 0 0 0 0 0 0 0 0 0 0 0 0 0 0 0 0 0 0 0 0 0 0 0 0 2 0 2 2 2 0 0 0 0 0 0 0 21 24 40 82 77 123 354 338 217 320 383 376 336 80 12 4 0 0 0 0 0 8 3 7 11 7 1
0 0 0 0 0 0 0 0 0 0 0 0 0 0 0 0 0 0 0 0 0 0 0 0 0 0 0 0 0 0 0 0 0 0 0 0 0 0 0 0 0 0 0 0 0 0 0 0 0 0 0 0 0 0 0 0 0 0 0 0 0 0 0 0 0 0 0 0 0 0 2 7 8 15 18 44 157 430 337 267 357 340 246 102 61 0 0 0 0 0 0 0 17 8 1 7 10
0 0 0 0 0 0 0 0 0 0 0 0 0 0 0 0 0 0 0 0 0 0 0 0 0 0 0 0 0 0 0 0 0 0 0 0 0 0 0 0 0 0 0 0 0 0 0 0 0 0 0 0 0 0 0 0 0 0 0 0 0 0 0 1 0 0 0 0 0 0 0 0 0 0 0 0 10 161 284 322 279 235 200 133 95 83 16 0 0 0 0 0 9 4 7 1 2
0 0 0 0 0 0 0 0 0 0 0 0 0 0 0 0 0 0 0 0 0 0 0 0 0 0 0 0 0 0 0 0 0 0 0 0 0 0 0 0 0 0 0 0 0 0 0 0 0 0 0 0 0 0 0 0 0 0 0 0 0 0 0 1 0 0 0 0 0 0 0 0 0 0 0 0 3 56 236 302 284 216 150 56 70 121 41 42 0 0 0 0 0 2 2 6 4
0 0 0 0 0 0 0 0 0 0 0 0 0 0 0 0 0 0 0 0 0 0 0 0 0 0 0 0 0 0 0 0 0 0 0 0 0 0 0 0 0 0 0 0 0 0 0 0 0 0 0 0 0 0 0 0 0 0 0 0 0 0 0 5 1 0 0 0 0 0 0 0 0 0 0 0 0 14 149 286 267 237 192 140 57 125 64 2 0 0 0 0 4 0 1 9 7
0 0 0 0 0 0 0 0 0 0 0 0 0 0 0 0 0 0 0 0 0 0 0 0 0 0 0 0 0 0 0 0 0 0 0 0 0 0 0 0 0 0 0 0 0 0 0 0 0 0 0 0 0 0 0 0 0 0 0 0 0 0 1 9 5 1 0 0 0 0 0 0 0 0 0 0 0 2 54 167 243 239 197 175 117 62 49 13 0 0 0 0 2 2 1 12 10
0 0 0 0 0 0 0 0 0 0 0 0 0 0 0 0 0 0 0 0 0 0 0 0 0 0 0 0 0 0 0 0 0 0 0 0 0 0 0 0 0 0 0 0 0 0 0 0 0 0 0 0 0 0 0 0 0 0 0 0 0 0 0 5 6 6 0 0 0 0 0 0 0 0 0 0 0 1 2 53 148 139 282 243 152 119 39 58 0 0 0 0 0 0 0 4 2
0 0 0 0 0 0 0 0 0 0 0 0 0 0 0 0 0 0 0 0 0 0 0 0 0 0 0 0 0 0 0 0 0 0 0 0 0 0 0 0 0 0 0 0 0 0 0 0 0 0 0 0 0 0 0 0 2 4 3 0 0 0 0 7 8 10 2 0 0 0 0 0 0 0 0 0 0 0 0 3 108 206 205 197 142 88 52 11 9 0 0 0 0 0 0 3 3
0 0 0 0 0 0 0 0 0 0 0 0 0 0 0 0 0 0 0 0 0 0 0 0 0 0 0 0 0 0 0 0 0 0 0 0 0 0 0 0 0 0 0 0 0 0 0 0 0 0 0 0 0 2 0 0 0 0 1 0 2 0 5 10 16 16 4 1 0 0 0 0 0 0 0 0 0 0 0 2 3 70 112 187 201 144 59 41 2 1 0 0 0 1 1 1 3
0 0 0 0 0 0 0 0 0 0 0 0 0 0 0 0 0 0 0 0 0 0 0 0 0 0 0 0 0 0 0 0 0 0 0 0 0 0 0 0 0 0 0 0 0 0 0 0 0 0 0 0 0 0 0 0 0 0 0 0 0 1 4 8 15 22 11 6 0 0 0 0 0 0 0 0 0 0 0 1 10 20 95 133 123 99 59 24 12 7 0 4 2 0 2 0 11
0 0 0 0 0 0 0 0 0 0 0 0 0 0 0 0 0 0 0 0 0 0 0 0 0 0 0 0 0 0 0 0 0 0 0 0 0 0 0 0 0 0 0 0 0 0 0 0 0 0 0 0 0 0 0 0 8 0 0 0 0 1 4 9 22 32 21 4 8 3 0 0 0 0 0 0 0 0 0 0 1 10 102 70 54 109 90 32 11 0 4 1 0 1 0 0 20
0 0 0 0 0 0 0 0 0 0 0 0 0 0 0 0 0 0 0 0 0 0 0 0 0 0 0 0 0 0 0 0 0 0 0 0 0 0 0 0 0 0 0 0 0 0 0 0 0 0 0 0 0 0 0 0 0 0 0 0 0 6 3 11 17 21 11 13 14 8 6 0 0 0 0 0 0 0 0 0 0 0 23 113 40 91 84 39 12 10 1 2 1 0 1 7 23
0 0 0 0 0 0 0 0 0 0 0 0 0 0 0 0 0 0 0 0 0 0 0 0 0 0 0 0 0 0 0 0 0 0 0 0 0 0 0 0 0 0 0 0 0 0 0 0 0 0 0 0 0 0 0 0 0 0 0 0 0 0 0 0 2 10 10 12 3 7 17 3 0 0 0 0 0 0 0 0 0 0 5 99 73 34 73 78 47 25 18 8 4 0 0 0 12
0 0 0 0 0 0 0 0 0 0 0 0 0 0 0 0 0 0 0 0 0 0 0 0 0 0 0 0 0 0 0 0 0 0 0 0 0 0 0 0 0 0 0 0 0 0 0 0 0 0 0 0 0 0 0 0 0 0 0 0 0 0 0 0 2 2 11 2 6 16 15 15 0 0 0 0 0 0 0 0 0 0 1 36 103 12 48 59 67 35 7 2 4 2 1 1 5
0 0 0 0 0 0 0 0 0 0 0 0 0 0 0 0 0 0 0 0 0 0 0 0 0 0 0 0 0 0 0 0 0 0 0 0 0 0 0 0 0 0 0 0 0 0 0 0 0 0 0 0 0 0 0 1 4 0 0 0 0 0 0 0 1 1 1 49 11 6 12 24 0 0 0 0 0 0 0 0 0 0 0 4 91 70 34 55 63 23 6 2 0 2 1 0 6
0 0 0 0 0 0 0 0 0 0 0 0 0 0 0 0 0 0 0 0 0 0 0 0 0 0 0 0 0 0 0 0 0 0 0 0 0 0 0 0 0 0 0 0 0 0 0 0 0 0 0 0 0 0 2 0 0 4 0 0 0 0 0 0 0 0 1 1 2 17 21 14 6 0 0 0 0 0 0 0 0 0 0 0 34 94 17 62 50 17 6 2 1 8 1 0 1
Wind_Speed
28 nan nan nan nan 33 nan nan nan nan nan nan nan nan nan nan nan nan nan nan nan nan nan nan nan nan nan nan nan nan nan nan nan nan nan 19 20 20 22 23 25 26 27 28 29 30 33 32 31 32 29 29 29 29 31 32 32 31 30 30 29 28 28 27 25 25 25 25 24 24 24 25 26 28 30 30 31 31 30 28 29 34 36 35 33 31 30 30 31 31 30 29 39 37 35 33 29
nan nan nan nan nan nan nan nan nan nan nan nan nan nan nan nan nan nan nan nan nan nan nan nan nan nan nan nan nan nan nan nan nan nan nan 22 nan nan 20 20 21 24 25 25 27 28 32 35 34 34 34 31 30 30 30 32 32 32 31 31 30 30 28 27 25 24 24 24 23 22 22 23 24 26 28 29 31 32 31 30 30 30 34 36 34 32 31 30 31 31 30 29 40 37 35 36 34
nan nan nan nan nan nan nan nan nan nan nan nan nan nan nan nan nan nan nan nan nan nan nan nan nan nan nan nan nan nan nan nan nan nan nan nan nan 17 10 11 15 18 20 21 24 26 28 32 37 35 35 32 30 29 28 29 30 31 31 31 31 31 29 28 25 23 22 21 21 20 21 22 23 24 24 27 30 32 33 32 31 30 31 34 35 34 32 31 31 31 29 28 37 37 37 38 36
nan nan nan nan nan nan 29 nan nan nan nan nan nan nan nan nan nan nan nan nan nan nan nan nan nan nan nan nan nan nan nan nan nan nan nan nan nan nan 15 11 13 15 16 17 19 23 26 29 37 38 35 31 30 30 29 28 28 29 29 30 31 30 30 29 26 24 22 21 20 20 20 22 22 22 22 24 26 30 32 34 34 33 31 32 33 35 34 32 31 30 29 26 32 37 38 39 38
nan nan nan nan nan nan nan nan nan nan nan nan nan nan nan nan nan nan nan nan nan nan nan nan nan nan nan nan nan nan nan nan nan nan nan nan 21 18 16 15 14 15 16 15 15 17 21 25 32 35 36 31 29 29 30 30 28 28 27 28 29 28 29 28 27 25 24 22 20 19 20 21 21 21 20 22 24 26 30 34 36 37 36 33 32 33 34 34 32 30 29 27 29 35 38 39 39
nan nan nan nan nan nan nan nan nan nan nan nan nan nan nan nan nan nan nan nan nan nan nan nan nan nan nan nan nan nan nan nan nan nan nan nan 20 19 17 17 nan nan nan 17 16 14 15 24 23 27 32 30 28 26 28 29 30 30 28 28 27 27 26 27 26 25 24 22 21 19 19 19 20 19 19 20 24 30 35 36 35 38 40 39 34 33 33 33 33 32 29 26 30 35 40 40 40
nan nan nan nan nan nan nan nan nan nan nan nan nan nan nan nan nan nan nan nan nan nan nan nan nan nan nan nan nan nan nan nan nan nan 22 17 17 17 15 nan nan nan nan 19 20 18 14 21 20 22 24 24 26 25 28 28 29 31 30 29 29 28 27 26 26 24 23 22 20 19 18 18 18 19 20 23 25 28 31 32 37 40 41 41 39 36 34 32 32 33 31 26 32 34 40 42 39
nan nan nan nan nan nan nan nan nan nan nan nan nan nan nan nan nan nan nan nan nan nan nan nan nan nan nan nan nan nan nan nan nan nan nan nan nan nan nan nan nan nan nan nan 23 22 23 26 17 19 19 20 23 25 27 28 29 29 30 30 30 30 29 27 25 24 22 21 21 20 19 17 17 19 21 22 23 25 28 31 33 37 41 42 41 40 37 33 31 33 32 30 36 38 39 38 40
nan nan nan nan nan nan nan nan nan nan nan nan nan nan nan nan nan nan nan nan nan nan nan nan nan nan nan nan nan nan nan nan nan nan nan nan nan nan nan nan nan nan nan 18 23 25 24 30 27 21 17 16 19 21 25 27 28 28 28 28 29 29 29 28 27 23 19 19 19 19 19 17 17 19 21 23 23 23 25 28 30 33 37 40 42 42 39 36 32 32 32 38 40 39 39 33 38
nan nan nan nan nan nan nan nan nan nan nan nan nan nan nan nan nan nan nan nan nan nan nan nan nan nan nan nan nan nan nan nan nan nan nan nan nan nan nan nan nan 16 16 18 21 23 25 30 31 28 22 18 19 21 22 24 27 29 28 27 27 28 28 28 27 25 22 19 20 20 20 21 24 22 21 22 23 23 23 25 28 31 33 37 39 41 42 38 34 33 32 41 40 39 40 35 36
nan nan nan nan nan nan nan nan nan nan nan nan nan nan nan nan nan nan nan nan nan nan nan nan nan nan nan nan nan nan nan nan nan nan nan nan nan nan nan nan nan 18 17 16 18 20 23 25 35 31 27 24 21 21 21 22 24 27 28 27 27 28 29 28 29 29 25 22 23 23 25 26 26 24 22 22 22 22 23 23 25 29 32 34 37 40 43 43 39 34 39 44 40 39 40 37 35
nan nan nan nan nan nan nan nan nan nan nan nan nan nan nan nan nan nan nan nan nan nan nan nan nan nan nan nan nan nan nan nan nan nan nan nan nan nan nan nan nan 17 18 18 18 19 20 22 28 34 32 28 24 23 22 22 21 23 26 27 27 29 29 29 28 28 25 23 24 24 24 25 26 26 24 23 22 21 23 23 24 26 30 34 37 40 43 45 43 43 45 47 45 42 41 39 35
nan nan nan nan nan nan nan nan nan nan nan nan nan nan nan nan nan nan nan nan nan nan nan nan nan nan nan nan nan nan nan nan nan nan nan nan nan nan nan nan nan nan 19 21 21 20 20 22 23 27 34 36 30 26 25 25 24 23 23 26 27 27 28 29 30 29 28 26 25 25 26 26 27 27 26 24 22 22 22 22 23 24 30 34 35 37 41 44 42 47 46 44 45 43 43 42 39
nan nan nan nan nan nan nan nan nan nan nan nan nan nan nan nan nan nan nan nan nan nan nan nan nan nan nan nan nan nan nan nan nan nan nan nan nan nan nan nan nan nan 24 24 24 23 23 24 25 25 26 34 34 35 32 30 29 28 27 27 30 28 27 28 30 31 29 29 28 29 29 29 28 29 28 26 24 23 23 22 21 26 29 37 40 39 40 40 40 47 47 44 45 45 46 44 46
nan nan nan nan nan nan nan nan nan nan nan nan nan nan nan nan nan nan nan nan nan nan nan nan nan nan nan nan nan nan nan nan nan nan nan nan nan nan nan nan nan nan 28 28 nan 25 23 23 25 26 26 25 28 32 35 38 37 32 30 30 32 32 30 30 30 30 30 31 32 32 31 30 30 30 30 28 27 26 25 24 25 27 30 34 38 37 38 37 38 44 44 45 45 46 47 49 53
nan nan nan nan nan nan nan nan nan nan nan nan nan nan nan nan nan nan nan nan nan nan nan nan nan nan nan nan nan nan nan nan nan nan nan nan nan nan nan nan nan nan nan nan nan nan 23 23 24 25 26 25 26 27 29 31 39 40 35 31 31 32 31 31 31 31 30 32 34 35 33 32 32 32 32 31 29 29 30 28 31 29 30 34 38 38 40 40 36 40 46 48 52 53 49 54 55
nan nan nan nan nan nan nan nan nan nan nan nan nan nan nan nan nan nan nan nan nan nan nan nan nan nan nan nan nan nan nan nan nan nan nan nan nan nan nan nan nan nan nan nan nan nan nan nan 22 23 23 24 25 26 26 29 30 41 39 36 33 32 32 32 31 31 31 33 35 37 36 34 32 33 35 34 35 33 36 34 33 33 31 33 39 40 37 39 35 40 47 54 50 55 53 56 59
nan nan nan nan nan nan nan nan nan nan nan nan nan nan nan nan nan nan nan nan nan nan nan nan nan nan nan nan nan nan nan nan nan nan nan nan nan nan nan nan nan nan nan nan nan nan nan nan nan nan nan 24 25 28 30 30 29 32 36 37 40 39 38 36 34 32 33 33 38 36 38 37 34 33 32 34 35 39 40 39 37 35 34 35 36 35 30 36 39 42 48 54 54 51 58 58 60
nan nan nan nan nan nan nan nan nan nan nan nan nan nan nan nan nan nan nan nan nan nan nan nan nan nan nan nan nan nan nan nan nan nan nan nan nan nan nan nan nan nan nan nan nan nan nan nan nan nan nan nan 24 26 28 29 29 30 32 34 36 40 40 41 39 35 32 32 34 38 37 37 37 35 32 35 37 39 41 41 39 36 39 38 35 33 35 38 44 48 53 56 57 59 58 57 57
nan nan nan nan nan nan nan nan nan nan nan nan nan nan nan nan nan nan nan nan nan nan nan nan nan nan nan nan nan nan nan nan nan nan nan nan nan nan nan nan nan nan nan nan nan nan nan nan nan nan nan nan 28 29 30 30 31 32 33 34 36 37 38 39 40 37 34 32 33 35 37 38 41 38 41 43 42 46 45 43 40 40 42 38 33 34 38 33 47 54 55 56 57 56 55 56 56
nan nan nan nan nan nan nan nan nan nan nan nan nan nan nan nan nan nan nan nan nan nan nan nan nan nan nan nan nan nan nan nan nan nan nan nan nan nan nan nan nan nan nan nan nan nan nan nan nan nan nan nan nan nan 31 31 32 31 32 35 36 38 39 38 40 39 38 36 34 36 37 40 42 41 44 39 39 40 42 42 40 37 37 37 35 38 38 37 44 48 51 49 52 57 55 54 56
nan nan nan nan nan nan nan nan nan nan nan nan nan nan nan nan nan nan nan nan nan nan nan nan nan nan nan nan nan nan nan nan nan nan nan nan nan nan nan nan nan nan nan nan nan nan nan nan nan nan nan nan nan nan nan nan nan 32 32 34 37 39 40 39 40 41 40 39 39 38 39 40 41 42 47 41 40 38 40 41 40 37 41 39 37 41 41 42 39 46 49 49 51 55 55 nan nan
nan nan nan nan nan nan nan nan nan nan nan nan nan nan nan nan nan nan nan nan nan nan nan nan nan nan nan nan nan nan nan nan nan nan nan nan nan nan nan nan nan nan nan nan nan nan nan nan nan nan nan nan nan nan nan nan nan 33 34 35 35 39 42 41 41 43 42 40 41 42 42 42 41 43 48 46 43 39 39 41 40 38 40 40 39 41 41 44 40 44 46 48 52 54 56 nan 54
nan nan nan nan nan nan nan nan nan nan nan nan nan nan nan nan nan nan nan nan nan nan nan nan nan nan nan nan nan nan nan nan nan nan nan nan nan nan nan nan nan nan nan nan nan nan nan nan nan nan nan nan nan nan nan nan nan nan 37 38 38 36 40 43 42 43 45 44 42 43 44 43 42 45 46 51 45 40 40 41 41 39 40 41 42 39 40 41 42 nan 40 43 nan nan nan nan nan
nan nan nan nan nan nan nan nan nan nan nan nan nan nan nan nan nan nan nan nan nan nan nan nan nan nan nan nan nan nan nan nan nan nan nan nan nan nan nan nan nan nan nan nan nan nan nan nan nan nan nan nan nan nan nan nan nan nan nan 40 39 40 40 43 44 43 45 47 45 44 45 43 45 45 47 52 49 43 41 43 44 40 41 43 43 42 38 41 42 nan nan nan nan nan nan nan nan
nan nan nan nan nan nan nan nan nan nan nan nan nan nan nan nan nan nan nan nan nan nan nan nan nan nan nan nan nan nan nan nan nan nan nan nan nan nan nan nan nan nan nan nan nan nan nan nan nan nan nan nan nan nan nan nan nan nan nan nan 44 43 42 42 43 46 47 48 51 48 45 47 47 47 49 51 51 47 44 45 46 43 41 42 42 41 39 40 41 40 nan nan nan nan nan nan nan
nan nan nan nan nan nan nan nan nan nan nan nan nan nan nan nan nan nan nan nan nan nan nan nan nan nan nan nan nan nan nan nan nan nan nan nan nan nan nan nan nan nan nan nan nan nan nan nan nan nan nan nan nan nan nan nan nan nan nan nan nan nan 46 46 47 48 50 52 52 50 49 48 50 50 49 50 51 50 48 46 48 45 42 41 40 40 36 38 40 40 nan nan nan nan nan nan nan
nan nan nan nan nan nan nan nan nan nan nan nan nan nan nan nan nan nan nan nan nan nan nan nan nan nan nan nan nan nan nan nan nan nan nan nan nan nan nan nan nan nan nan nan nan nan nan nan nan nan nan nan nan nan nan nan nan nan nan nan nan nan 52 51 50 51 52 54 56 55 53 47 49 51 50 50 49 52 51 46 49 47 43 41 40 41 39 37 40 41 41 nan nan nan nan nan nan
nan nan nan nan nan nan nan nan nan nan nan nan nan nan nan nan nan nan nan nan nan nan nan nan nan nan nan nan nan nan nan nan nan nan nan nan nan nan nan nan nan nan nan nan nan nan nan nan nan nan nan nan nan nan nan nan nan nan nan nan nan 60 57 57 55 54 54 56 58 58 55 49 52 53 53 50 50 49 55 48 49 48 45 40 41 42 41 42 41 41 40 nan nan nan nan nan nan
nan nan nan nan nan nan nan nan nan nan nan nan nan nan nan nan nan nan nan nan nan nan nan nan nan nan nan nan nan nan nan nan nan nan nan nan nan nan nan nan nan nan nan nan nan nan nan nan nan nan nan nan nan nan nan nan nan nan nan nan nan nan nan 62 63 59 60 59 58 60 58 54 50 51 53 52 52 48 51 53 50 48 48 45 43 43 43 44 43 40 40 nan nan nan nan nan nan
nan nan nan nan nan nan nan nan nan nan nan nan nan nan nan nan nan nan nan nan nan nan nan nan nan nan nan nan nan nan nan nan nan nan nan nan nan nan nan nan nan nan nan nan nan nan nan nan nan nan nan nan nan nan nan nan nan nan nan nan nan nan nan 68 67 65 63 61 59 63 64 59 52 48 52 52 54 55 51 51 47 49 51 47 43 42 42 45 46 44 nan nan nan nan nan nan nan
nan nan nan nan nan nan nan nan nan nan nan nan nan nan nan nan nan nan nan nan nan nan nan nan nan nan nan nan nan nan nan nan nan nan nan nan nan nan nan nan nan nan nan nan nan nan nan nan nan nan nan nan nan nan nan nan nan nan nan nan nan nan nan nan nan 68 67 64 60 60 62 60 55 54 51 nan 51 52 52 50 50 52 52 47 44 43 43 45 46 46 nan nan nan nan nan nan nan
nan nan nan nan nan nan nan nan nan nan nan nan nan nan nan nan nan nan nan nan nan nan nan nan nan nan nan nan nan nan nan nan nan nan nan nan nan nan nan nan nan nan nan nan nan nan nan nan nan nan nan nan nan nan nan nan nan nan nan nan nan nan nan nan nan 68 67 66 66 63 57 61 60 53 53 52 51 49 53 51 51 53 53 50 45 44 42 43 45 47 46 nan nan nan nan nan nan
nan nan nan nan nan nan nan nan nan nan nan nan nan nan nan nan nan nan nan nan nan nan nan nan nan nan nan nan nan nan nan nan nan nan nan nan nan nan nan nan nan nan nan nan nan nan nan nan nan nan nan nan nan nan nan nan nan nan nan nan nan nan nan nan nan 69 67 65 66 63 60 59 61 54 53 52 51 52 55 52 55 56 54 51 46 46 44 43 43 47 nan nan nan nan nan nan nan
nan nan nan nan nan nan nan nan nan nan nan nan nan nan nan nan nan nan nan nan nan nan nan nan nan nan nan nan nan nan nan nan nan nan nan nan nan nan nan nan nan nan nan nan nan nan nan nan nan nan nan nan nan nan nan nan nan nan nan nan nan nan nan nan nan 69 69 64 63 61 59 61 58 54 52 55 57 nan 53 56 56 58 54 52 49 46 46 45 43 47 49 48 nan nan nan nan nan
nan nan nan nan nan nan nan nan nan nan nan nan nan nan nan nan nan nan nan nan nan nan nan nan nan nan nan nan nan nan nan nan nan nan nan nan nan nan nan nan nan nan nan nan nan nan nan nan nan nan nan nan nan nan nan nan nan nan nan nan nan nan nan nan nan 68 71 71 67 61 nan 56 56 54 51 59 57 54 55 55 57 60 55 53 51 50 nan 45 43 nan nan nan nan nan nan nan nan
nan nan nan nan nan nan nan nan nan nan nan nan nan nan nan nan nan nan nan nan nan nan nan nan nan nan nan nan nan nan nan nan nan nan nan nan nan nan nan nan nan nan nan nan nan nan nan nan nan nan nan nan nan nan nan nan nan nan nan nan nan nan nan nan nan 68 72 nan 72 67 60 55 53 51 54 58 58 59 56 56 58 58 nan nan nan nan nan nan nan nan 50 50 nan nan nan nan nan
nan nan nan nan nan nan nan nan nan nan nan nan nan nan nan nan nan nan nan nan nan nan nan nan nan nan nan nan nan nan nan nan nan nan nan nan nan nan nan nan nan nan nan nan nan nan nan nan nan nan nan nan nan nan nan nan nan nan nan nan nan nan nan nan nan nan 74 74 73 70 64 57 53 52 53 60 58 58 58 59 58 nan nan nan nan nan nan nan nan nan nan 50 nan nan nan nan nan
nan nan nan nan nan nan nan nan nan nan nan nan nan nan nan nan nan nan nan nan nan nan nan nan nan nan nan nan nan nan nan nan nan nan nan nan nan nan nan nan nan nan nan nan nan nan nan nan nan nan nan nan nan nan nan nan nan nan nan nan nan nan nan nan nan nan 74 75 73 70 67 63 56 54 53 57 61 59 58 56 56 55 nan nan nan nan nan nan nan nan nan nan nan nan nan nan nan
nan nan nan nan nan nan nan nan nan nan nan nan nan nan nan nan nan nan nan nan nan nan nan nan nan nan nan nan nan nan nan nan nan nan nan nan nan nan nan nan nan nan nan nan nan nan nan nan nan nan nan nan nan nan nan nan nan nan nan nan nan nan nan nan nan nan nan nan nan 73 71 66 60 56 55 58 60 59 56 54 55 55 nan nan nan nan nan nan nan nan nan nan nan nan nan nan nan
nan nan nan nan nan nan nan nan nan nan nan nan nan nan nan nan nan nan nan nan nan nan nan nan nan nan nan nan nan nan nan nan nan nan nan nan nan nan nan nan nan nan nan nan nan nan nan nan nan nan nan nan nan nan nan nan nan nan nan nan nan nan nan nan nan nan nan nan nan nan nan nan 62 61 59 55 57 56 56 55 54 52 53 nan nan nan nan nan nan nan nan nan nan nan nan nan nan
nan nan nan nan nan nan nan nan nan nan nan nan nan nan nan nan nan nan nan nan nan nan nan nan nan nan nan nan nan nan nan nan nan nan nan nan nan nan nan nan nan nan nan nan nan nan nan nan nan nan nan nan nan nan nan nan nan nan nan nan nan nan nan nan nan nan nan nan nan nan nan nan nan nan 62 55 54 55 54 55 52 49 51 nan nan nan nan nan nan nan nan nan nan nan nan nan nan
nan nan nan nan nan nan nan nan nan nan nan nan nan nan nan nan nan nan nan nan nan nan nan nan nan nan nan nan nan nan nan nan nan nan nan nan nan nan nan nan nan nan nan nan nan nan nan nan nan nan nan nan nan nan nan nan nan nan nan nan nan nan nan nan nan nan nan nan nan nan nan nan nan nan nan 57 50 51 53 57 52 47 48 nan nan nan nan nan nan nan nan nan nan nan nan nan nan
nan nan nan nan nan nan nan nan nan nan nan nan nan nan nan nan nan nan nan nan nan nan nan nan nan nan nan nan nan nan nan nan nan nan nan nan nan nan nan nan nan nan nan nan nan nan nan nan nan nan nan nan nan nan nan nan nan nan nan nan nan nan nan nan nan nan nan nan nan nan nan nan nan nan nan nan 53 49 52 57 55 52 49 52 nan nan nan nan nan nan nan nan nan nan nan nan nan
nan nan nan nan nan nan nan nan nan nan nan nan nan nan nan nan nan nan nan nan nan nan nan nan nan nan nan nan nan nan nan nan nan nan nan nan nan nan nan nan nan nan nan nan nan nan nan nan nan nan nan nan nan nan nan nan nan nan nan nan nan nan nan nan nan nan nan nan nan nan nan nan nan nan nan nan nan 54 55 56 55 53 52 53 nan nan nan nan nan nan nan nan nan nan nan nan nan
nan nan nan nan nan nan nan nan nan nan nan nan nan nan nan nan nan nan nan nan nan nan nan nan nan nan nan nan nan nan nan nan nan nan nan nan nan nan nan nan nan nan nan nan nan nan nan nan nan nan nan nan nan nan nan nan nan nan nan nan nan nan nan nan nan nan nan nan nan nan nan nan nan nan nan nan nan nan 52 55 56 54 54 nan nan 54 nan nan nan nan nan nan nan nan nan nan nan
nan nan nan nan nan nan nan nan nan nan nan nan nan nan nan nan nan nan nan nan nan nan nan nan nan nan nan nan nan nan nan nan nan nan nan nan nan nan nan nan nan nan nan nan nan nan nan nan nan nan nan nan nan nan nan nan nan nan nan nan nan nan nan nan nan nan nan nan nan nan nan nan nan nan nan nan nan nan 61 56 56 56 57 57 nan 55 nan nan nan nan nan nan nan nan nan nan nan
nan nan nan nan nan nan nan nan nan nan nan nan nan nan nan nan nan nan nan nan nan nan nan nan nan nan nan nan nan nan nan nan nan nan nan nan nan nan nan nan nan nan nan nan nan nan nan nan nan nan nan nan nan nan nan nan nan nan nan nan nan nan nan nan nan nan nan nan nan nan nan nan nan nan nan nan nan nan nan 57 54 55 58 60 58 nan nan nan nan nan nan nan nan nan nan nan nan
nan nan nan nan nan nan nan nan nan nan nan nan nan nan nan nan nan nan nan nan nan nan nan nan nan nan nan nan nan nan nan nan nan nan nan nan nan nan nan nan nan nan nan nan nan nan nan nan nan nan nan nan nan nan nan nan nan nan nan nan nan nan nan nan nan nan nan nan nan nan nan nan nan nan nan nan nan nan nan nan 54 56 59 60 60 57 nan nan nan nan nan nan nan nan nan nan nan
nan nan nan nan nan nan nan nan nan nan nan nan nan nan nan nan nan nan nan nan nan nan nan nan nan nan nan nan nan nan nan nan nan nan nan nan nan nan nan nan nan nan nan nan nan nan nan nan nan nan nan nan nan nan nan nan nan nan nan nan nan nan nan nan nan nan nan nan nan nan nan nan nan nan nan nan nan nan nan nan 61 56 56 60 63 nan nan nan nan nan nan nan nan nan nan nan nan
nan nan nan nan nan nan nan nan nan nan nan nan nan nan nan nan nan nan nan nan nan nan nan nan nan nan nan nan nan nan nan nan nan nan nan nan nan nan nan nan nan nan nan nan nan nan nan nan nan nan nan nan nan nan nan nan nan nan nan nan nan nan nan nan nan nan nan nan nan nan nan nan nan nan nan nan nan nan nan nan nan nan 57 59 63 57 nan nan nan nan nan nan nan nan nan nan nan
nan nan nan nan nan nan nan nan nan nan nan nan nan nan nan nan nan nan nan nan nan nan nan nan nan nan nan nan nan nan nan nan nan nan nan nan nan nan nan nan nan nan nan nan nan nan nan nan nan nan nan nan nan nan nan nan nan nan nan nan nan nan nan nan nan nan nan nan nan nan nan nan nan nan nan nan nan nan nan nan nan nan nan 59 62 nan nan nan nan nan nan nan nan nan nan nan nan
nan nan nan nan nan nan nan nan nan nan nan nan nan nan nan nan nan nan nan nan nan nan nan nan nan nan nan nan nan nan nan nan nan nan nan nan nan nan nan nan nan nan nan nan nan nan nan nan nan nan nan nan nan nan nan nan nan nan nan nan nan nan nan nan nan nan nan nan nan nan nan nan nan nan nan nan nan nan nan nan nan nan 62 nan nan 62 nan nan nan nan nan nan nan nan nan nan nan
nan nan nan nan nan nan nan nan nan nan nan nan nan nan nan nan nan nan nan nan nan nan nan nan nan nan nan nan nan nan nan nan nan nan nan nan nan nan nan nan nan nan nan nan nan nan nan nan nan nan nan nan nan nan nan nan nan nan nan nan nan nan nan nan nan nan nan nan nan nan nan nan nan nan nan nan nan nan nan nan nan nan nan 61 nan nan nan nan nan nan nan nan nan nan nan nan nan
nan nan nan nan nan nan nan nan nan nan nan nan nan nan nan nan nan nan nan nan nan nan nan nan nan nan nan nan nan nan nan nan nan nan nan nan nan nan nan nan nan nan nan nan nan nan nan nan nan nan nan nan nan nan nan nan nan nan nan nan nan nan nan nan nan nan nan nan nan nan nan nan nan nan nan nan nan nan nan nan nan nan nan nan nan nan nan nan nan nan nan nan nan nan nan nan nan
nan nan nan nan nan nan nan nan nan nan nan nan nan nan nan nan nan nan nan nan nan nan nan nan nan nan nan nan nan nan nan nan nan nan nan nan nan nan nan nan nan nan nan nan nan nan nan nan nan nan nan nan nan nan nan nan nan nan nan nan nan nan nan nan nan nan nan nan nan nan nan nan nan nan nan nan nan nan nan nan nan nan nan nan 60 nan nan nan nan nan nan nan nan nan nan nan nan
nan nan nan nan nan nan nan nan nan nan nan nan nan nan nan nan nan nan nan nan nan nan nan nan nan nan nan nan nan nan nan nan nan nan nan nan nan nan nan nan nan nan nan nan nan nan nan nan nan nan nan nan nan nan nan nan nan nan nan nan nan nan nan nan nan nan nan nan nan nan nan nan nan nan nan nan nan nan nan nan nan nan nan nan nan nan nan nan nan nan nan nan nan nan nan nan nan
nan nan nan nan nan nan nan nan nan nan nan nan nan nan nan nan nan nan nan nan nan nan nan nan nan nan nan nan nan nan nan nan nan nan nan nan nan nan nan nan nan nan nan nan nan nan nan nan nan nan nan nan nan nan nan nan nan nan nan nan nan nan nan nan nan nan nan nan nan nan nan nan nan nan nan nan nan nan nan nan nan nan nan nan nan nan nan nan nan nan nan nan nan nan nan nan nan
Wind_Direction
40 nan nan nan nan 30 nan nan nan nan nan nan nan nan nan nan nan nan nan nan nan nan nan nan nan nan nan nan nan nan nan nan nan nan nan 12 20 30 31 31 29 27 28 25 19 6 7 9 11 9 6 1 356 355 353 353 353 351 351 348 348 348 347 347 346 343 336 325 312 304 296 288 277 266 259 254 253 252 255 261 261 255 252 251 250 246 242 239 239 238 237 238 257 257 258 255 250
nan nan nan nan nan nan nan nan nan nan nan nan nan nan nan nan nan nan nan nan nan nan nan nan nan nan nan nan nan nan nan nan nan nan nan 2 nan nan 26 24 29 29 25 24 20 15 9 8 9 12 11 7 0 358 356 353 352 352 351 346 344 346 346 345 345 346 346 340 327 315 305 296 288 278 269 260 255 252 253 256 260 258 253 250 250 249 245 241 239 239 239 239 261 259 257 255 257
nan nan nan nan nan nan nan nan nan nan nan nan nan nan nan nan nan nan nan nan nan nan nan nan nan nan nan nan nan nan nan nan nan nan nan nan nan 341 352 6 22 26 22 21 19 16 9 7 2 9 11 11 6 0 356 353 351 351 349 347 344 344 343 343 344 345 347 347 342 330 318 309 299 289 278 270 260 256 253 253 256 259 257 252 251 251 250 246 241 239 240 240 260 260 260 259 257
nan nan nan nan nan nan 24 nan nan nan nan nan nan nan nan nan nan nan nan nan nan nan nan nan nan nan nan nan nan nan nan nan nan nan nan nan nan nan 342 353 2 9 10 8 15 13 8 357 357 4 8 9 7 3 358 355 352 350 345 342 341 341 342 341 341 341 341 343 345 343 335 326 316 303 288 277 268 261 257 253 251 252 254 252 250 250 252 251 247 242 240 241 254 259 261 263 259
nan nan nan nan nan nan nan nan nan nan nan nan nan nan nan nan nan nan nan nan nan nan nan nan nan nan nan nan nan nan nan nan nan nan nan nan 332 334 342 342 353 356 359 355 1 8 5 343 351 358 2 4 5 3 358 355 353 352 345 339 337 338 339 338 339 338 337 339 342 344 341 335 328 318 302 286 275 268 261 256 251 249 248 247 247 247 249 251 251 248 243 241 250 258 260 264 263
nan nan nan nan nan nan nan nan nan nan nan nan nan nan nan nan nan nan nan nan nan nan nan nan nan nan nan nan nan nan nan nan nan nan nan nan 332 333 337 345 nan nan nan 343 340 347 354 329 341 351 356 358 359 358 358 353 352 350 345 343 339 337 335 337 340 339 337 336 336 339 340 339 333 324 313 297 279 265 254 248 250 249 247 244 241 241 244 247 250 251 247 243 248 260 259 260 264
nan nan nan nan nan nan nan nan nan nan nan nan nan nan nan nan nan nan nan nan nan nan nan nan nan nan nan nan nan nan nan nan nan nan 327 330 334 334 339 nan nan nan nan 340 332 331 323 305 325 338 347 349 351 348 354 352 351 350 346 344 342 339 335 334 340 342 340 334 331 330 334 336 334 328 312 293 279 268 260 252 243 245 247 243 239 237 238 241 247 250 249 246 252 258 260 264 265
nan nan nan nan nan nan nan nan nan nan nan nan nan nan nan nan nan nan nan nan nan nan nan nan nan nan nan nan nan nan nan nan nan nan nan nan nan nan nan nan nan nan nan nan 335 328 314 300 305 324 333 344 348 350 349 351 351 348 344 344 345 341 339 338 336 339 339 334 328 326 329 331 329 323 313 299 288 276 266 257 250 245 244 243 239 236 235 236 242 249 249 248 259 258 258 264 270
nan nan nan nan nan nan nan nan nan nan nan nan nan nan nan nan nan nan nan nan nan nan nan nan nan nan nan nan nan nan nan nan nan nan nan nan nan nan nan nan nan nan nan 341 334 332 329 313 313 318 320 332 342 344 345 343 344 342 341 339 338 337 338 338 337 326 321 323 325 318 312 314 314 316 315 305 295 286 273 262 254 249 244 242 241 237 234 233 238 245 247 257 260 262 262 265 270
nan nan nan nan nan nan nan nan nan nan nan nan nan nan nan nan nan nan nan nan nan nan nan nan nan nan nan nan nan nan nan nan nan nan nan nan nan nan nan nan nan 339 342 339 337 335 331 319 321 322 321 325 335 339 342 338 337 337 334 332 330 336 333 334 332 325 325 319 309 308 308 310 306 309 309 307 300 291 281 269 259 252 246 243 242 239 235 232 234 240 243 259 261 263 264 266 267
nan nan nan nan nan nan nan nan nan nan nan nan nan nan nan nan nan nan nan nan nan nan nan nan nan nan nan nan nan nan nan nan nan nan nan nan nan nan nan nan nan 326 332 330 328 329 330 330 320 322 324 326 325 329 332 333 332 337 331 333 329 328 327 326 328 333 332 316 301 300 302 299 299 300 303 304 302 293 284 274 262 254 248 244 242 240 235 232 234 237 243 254 256 260 263 267 267
nan nan nan nan nan nan nan nan nan nan nan nan nan nan nan nan nan nan nan nan nan nan nan nan nan nan nan nan nan nan nan nan nan nan nan nan nan nan nan nan nan 317 322 324 324 323 324 325 323 323 327 323 315 320 316 317 321 322 330 328 328 325 325 327 325 322 317 312 304 299 299 299 298 297 296 300 299 294 287 278 267 257 249 243 240 240 241 233 235 240 247 250 252 256 257 261 264
nan nan nan nan nan nan nan nan nan nan nan nan nan nan nan nan nan nan nan nan nan nan nan nan nan nan nan nan nan nan nan nan nan nan nan nan nan nan nan nan nan nan 317 320 323 324 322 322 320 318 320 324 321 318 315 314 311 309 317 327 324 328 329 326 319 320 322 320 314 304 299 295 293 291 289 291 292 291 288 282 270 259 249 241 240 242 242 245 244 250 251 251 251 259 263 264 268
nan nan nan nan nan nan nan nan nan nan nan nan nan nan nan nan nan nan nan nan nan nan nan nan nan nan nan nan nan nan nan nan nan nan nan nan nan nan nan nan nan nan 315 316 319 320 320 320 318 314 311 314 317 319 323 324 315 310 308 316 321 323 326 324 319 316 318 319 316 309 301 294 291 289 286 286 285 284 283 282 274 259 252 250 248 248 248 251 249 251 255 250 250 257 258 262 264
nan nan nan nan nan nan nan nan nan nan nan nan nan nan nan nan nan nan nan nan nan nan nan nan nan nan nan nan nan nan nan nan nan nan nan nan nan nan nan nan nan nan 316 315 nan 317 318 317 316 313 311 307 308 310 314 318 326 324 315 311 313 315 318 320 316 313 312 314 316 312 306 298 291 287 284 284 285 283 281 276 269 263 257 256 252 254 257 258 251 253 253 251 252 258 259 258 264
nan nan nan nan nan nan nan nan nan nan nan nan nan nan nan nan nan nan nan nan nan nan nan nan nan nan nan nan nan nan nan nan nan nan nan nan nan nan nan nan nan nan nan nan nan nan 311 311 311 310 309 307 304 303 305 311 316 325 321 315 309 307 308 311 313 312 311 311 312 311 308 300 290 283 284 280 280 280 278 271 272 266 261 258 252 257 258 258 255 254 249 252 253 257 262 259 261
nan nan nan nan nan nan nan nan nan nan nan nan nan nan nan nan nan nan nan nan nan nan nan nan nan nan nan nan nan nan nan nan nan nan nan nan nan nan nan nan nan nan nan nan nan nan nan nan 302 306 307 309 307 304 300 301 303 308 311 314 311 305 300 301 305 307 308 306 308 306 305 301 292 283 282 280 281 279 279 279 273 266 261 261 255 248 254 259 259 258 256 250 251 255 251 257 256
nan nan nan nan nan nan nan nan nan nan nan nan nan nan nan nan nan nan nan nan nan nan nan nan nan nan nan nan nan nan nan nan nan nan nan nan nan nan nan nan nan nan nan nan nan nan nan nan nan nan nan 305 305 303 298 296 294 296 300 302 303 304 303 300 295 296 299 300 304 304 301 298 292 287 284 282 280 278 277 278 274 267 262 263 257 255 252 262 264 263 259 251 249 250 255 247 248
nan nan nan nan nan nan nan nan nan nan nan nan nan nan nan nan nan nan nan nan nan nan nan nan nan nan nan nan nan nan nan nan nan nan nan nan nan nan nan nan nan nan nan nan nan nan nan nan nan nan nan nan 299 302 299 295 294 290 292 294 291 296 300 302 298 295 294 297 298 299 298 297 296 289 285 279 276 278 274 278 274 268 259 266 263 257 243 254 263 265 262 254 249 250 246 242 242
nan nan nan nan nan nan nan nan nan nan nan nan nan nan nan nan nan nan nan nan nan nan nan nan nan nan nan nan nan nan nan nan nan nan nan nan nan nan nan nan nan nan nan nan nan nan nan nan nan nan nan nan 294 296 294 292 291 290 288 287 288 288 290 292 295 294 292 291 291 294 296 297 292 290 279 280 278 275 272 271 272 266 261 264 267 256 251 251 262 257 253 257 251 243 242 242 242
nan nan nan nan nan nan nan nan nan nan nan nan nan nan nan nan nan nan nan nan nan nan nan nan nan nan nan nan nan nan nan nan nan nan nan nan nan nan nan nan nan nan nan nan nan nan nan nan nan nan nan nan nan nan 292 289 287 286 286 285 285 285 284 284 286 288 288 286 287 288 291 292 290 289 282 279 278 275 274 272 270 270 264 263 266 253 246 248 254 253 250 246 242 242 242 244 243
nan nan nan nan nan nan nan nan nan nan nan nan nan nan nan nan nan nan nan nan nan nan nan nan nan nan nan nan nan nan nan nan nan nan nan nan nan nan nan nan nan nan nan nan nan nan nan nan nan nan nan nan nan nan nan nan nan 283 285 284 282 281 282 281 281 281 281 282 281 281 282 286 288 286 281 281 277 273 272 270 270 271 266 262 266 255 247 245 244 255 251 246 243 241 239 nan nan
nan nan nan nan nan nan nan nan nan nan nan nan nan nan nan nan nan nan nan nan nan nan nan nan nan nan nan nan nan nan nan nan nan nan nan nan nan nan nan nan nan nan nan nan nan nan nan nan nan nan nan nan nan nan nan nan nan 280 284 285 281 277 277 278 278 278 276 275 277 276 277 280 284 284 281 281 277 276 273 270 269 270 268 265 264 262 255 254 244 244 245 246 244 240 236 nan 234
nan nan nan nan nan nan nan nan nan nan nan nan nan nan nan nan nan nan nan nan nan nan nan nan nan nan nan nan nan nan nan nan nan nan nan nan nan nan nan nan nan nan nan nan nan nan nan nan nan nan nan nan nan nan nan nan nan nan 283 283 282 278 273 274 275 275 273 272 272 268 270 273 277 279 280 276 275 274 273 271 271 269 268 264 263 262 259 254 252 nan 240 241 nan nan nan nan nan
nan nan nan nan nan nan nan nan nan nan nan nan nan nan nan nan nan nan nan nan nan nan nan nan nan nan nan nan nan nan nan nan nan nan nan nan nan nan nan nan nan nan nan nan nan nan nan nan nan nan nan nan nan nan nan nan nan nan nan 282 281 277 274 272 272 271 270 269 269 269 266 268 270 274 277 275 274 275 273 271 271 267 266 265 264 261 259 255 251 nan nan nan nan nan nan nan nan
nan nan nan nan nan nan nan nan nan nan nan nan nan nan nan nan nan nan nan nan nan nan nan nan nan nan nan nan nan nan nan nan nan nan nan nan nan nan nan nan nan nan nan nan nan nan nan nan nan nan nan nan nan nan nan nan nan nan nan nan 278 274 272 269 268 268 266 265 265 265 265 263 265 267 270 272 272 274 273 270 268 266 264 264 263 259 258 254 252 248 nan nan nan nan nan nan nan
nan nan nan nan nan nan nan nan nan nan nan nan nan nan nan nan nan nan nan nan nan nan nan nan nan nan nan nan nan nan nan nan nan nan nan nan nan nan nan nan nan nan nan nan nan nan nan nan nan nan nan nan nan nan nan nan nan nan nan nan nan nan 269 266 264 264 264 263 262 260 258 259 261 261 262 268 269 270 270 268 266 265 262 261 259 252 253 253 249 248 nan nan nan nan nan nan nan
nan nan nan nan nan nan nan nan nan nan nan nan nan nan nan nan nan nan nan nan nan nan nan nan nan nan nan nan nan nan nan nan nan nan nan nan nan nan nan nan nan nan nan nan nan nan nan nan nan nan nan nan nan nan nan nan nan nan nan nan nan nan 269 264 261 260 260 260 259 259 257 254 257 259 259 261 266 267 266 261 264 264 261 258 257 256 254 254 249 248 245 nan nan nan nan nan nan
nan nan nan nan nan nan nan nan nan nan nan nan nan nan nan nan nan nan nan nan nan nan nan nan nan nan nan nan nan nan nan nan nan nan nan nan nan nan nan nan nan nan nan nan nan nan nan nan nan nan nan nan nan nan nan nan nan nan nan nan nan 271 266 263 259 255 255 256 257 258 257 255 249 250 252 255 259 265 268 264 262 263 261 258 255 254 255 252 252 249 250 nan nan nan nan nan nan
nan nan nan nan nan nan nan nan nan nan nan nan nan nan nan nan nan nan nan nan nan nan nan nan nan nan nan nan nan nan nan nan nan nan nan nan nan nan nan nan nan nan nan nan nan nan nan nan nan nan nan nan nan nan nan nan nan nan nan nan nan nan nan 257 256 252 251 252 255 256 255 251 250 252 254 252 255 255 265 264 260 261 257 255 252 249 249 249 249 245 246 nan nan nan nan nan nan
nan nan nan nan nan nan nan nan nan nan nan nan nan nan nan nan nan nan nan nan nan nan nan nan nan nan nan nan nan nan nan nan nan nan nan nan nan nan nan nan nan nan nan nan nan nan nan nan nan nan nan nan nan nan nan nan nan nan nan nan nan nan nan 254 252 251 251 253 255 255 253 252 250 246 243 250 251 250 254 255 259 256 254 252 250 249 247 248 248 244 nan nan nan nan nan nan nan
nan nan nan nan nan nan nan nan nan nan nan nan nan nan nan nan nan nan nan nan nan nan nan nan nan nan nan nan nan nan nan nan nan nan nan nan nan nan nan nan nan nan nan nan nan nan nan nan nan nan nan nan nan nan nan nan nan nan nan nan nan nan nan nan nan 253 254 254 255 254 256 254 246 243 247 nan 246 251 252 257 257 256 257 252 249 250 248 248 250 246 nan nan nan nan nan nan nan
nan nan nan nan nan nan nan nan nan nan nan nan nan nan nan nan nan nan nan nan nan nan nan nan nan nan nan nan nan nan nan nan nan nan nan nan nan nan nan nan nan nan nan nan nan nan nan nan nan nan nan nan nan nan nan nan nan nan nan nan nan nan nan nan nan 251 253 255 257 256 254 254 251 244 241 247 247 247 252 255 256 256 254 249 247 248 247 246 249 249 246 nan nan nan nan nan nan
nan nan nan nan nan nan nan nan nan nan nan nan nan nan nan nan nan nan nan nan nan nan nan nan nan nan nan nan nan nan nan nan nan nan nan nan nan nan nan nan nan nan nan nan nan nan nan nan nan nan nan nan nan nan nan nan nan nan nan nan nan nan nan nan nan 249 248 252 256 257 254 250 249 247 242 243 245 244 249 252 257 256 253 249 244 242 243 243 247 250 nan nan nan nan nan nan nan
nan nan nan nan nan nan nan nan nan nan nan nan nan nan nan nan nan nan nan nan nan nan nan nan nan nan nan nan nan nan nan nan nan nan nan nan nan nan nan nan nan nan nan nan nan nan nan nan nan nan nan nan nan nan nan nan nan nan nan nan nan nan nan nan nan 246 247 247 251 253 254 253 248 244 243 242 245 nan 246 246 249 255 249 247 244 240 243 242 244 249 253 248 nan nan nan nan nan
nan nan nan nan nan nan nan nan nan nan nan nan nan nan nan nan nan nan nan nan nan nan nan nan nan nan nan nan nan nan nan nan nan nan nan nan nan nan nan nan nan nan nan nan nan nan nan nan nan nan nan nan nan nan nan nan nan nan nan nan nan nan nan nan nan 241 238 241 244 247 nan 250 248 247 244 239 241 245 247 250 249 252 252 248 247 241 nan 242 245 nan nan nan nan nan nan nan nan
nan nan nan nan nan nan nan nan nan nan nan nan nan nan nan nan nan nan nan nan nan nan nan nan nan nan nan nan nan nan nan nan nan nan nan nan nan nan nan nan nan nan nan nan nan nan nan nan nan nan nan nan nan nan nan nan nan nan nan nan nan nan nan nan nan 238 235 nan 238 241 244 246 244 243 245 241 237 241 242 245 250 254 nan nan nan nan nan nan nan nan 251 251 nan nan nan nan nan
nan nan nan nan nan nan nan nan nan nan nan nan nan nan nan nan nan nan nan nan nan nan nan nan nan nan nan nan nan nan nan nan nan nan nan nan nan nan nan nan nan nan nan nan nan nan nan nan nan nan nan nan nan nan nan nan nan nan nan nan nan nan nan nan nan nan 233 233 234 239 239 237 238 239 241 242 238 237 242 244 248 nan nan nan nan nan nan nan nan nan nan 247 nan nan nan nan nan
nan nan nan nan nan nan nan nan nan nan nan nan nan nan nan nan nan nan nan nan nan nan nan nan nan nan nan nan nan nan nan nan nan nan nan nan nan nan nan nan nan nan nan nan nan nan nan nan nan nan nan nan nan nan nan nan nan nan nan nan nan nan nan nan nan nan 230 230 229 233 237 235 229 232 237 240 236 236 238 244 248 248 nan nan nan nan nan nan nan nan nan nan nan nan nan nan nan
nan nan nan nan nan nan nan nan nan nan nan nan nan nan nan nan nan nan nan nan nan nan nan nan nan nan nan nan nan nan nan nan nan nan nan nan nan nan nan nan nan nan nan nan nan nan nan nan nan nan nan nan nan nan nan nan nan nan nan nan nan nan nan nan nan nan nan nan nan 226 232 235 230 225 232 238 236 233 235 240 245 247 nan nan nan nan nan nan nan nan nan nan nan nan nan nan nan
nan nan nan nan nan nan nan nan nan nan nan nan nan nan nan nan nan nan nan nan nan nan nan nan nan nan nan nan nan nan nan nan nan nan nan nan nan nan nan nan nan nan nan nan nan nan nan nan nan nan nan nan nan nan nan nan nan nan nan nan nan nan nan nan nan nan nan nan nan nan nan nan 229 226 226 231 236 232 233 237 242 247 250 nan nan nan nan nan nan nan nan nan nan nan nan nan nan
nan nan nan nan nan nan nan nan nan nan nan nan nan nan nan nan nan nan nan nan nan nan nan nan nan nan nan nan nan nan nan nan nan nan nan nan nan nan nan nan nan nan nan nan nan nan nan nan nan nan nan nan nan nan nan nan nan nan nan nan nan nan nan nan nan nan nan nan nan nan nan nan nan nan 226 227 232 232 231 235 238 241 247 nan nan nan nan nan nan nan nan nan nan nan nan nan nan
nan nan nan nan nan nan nan nan nan nan nan nan nan nan nan nan nan nan nan nan nan nan nan nan nan nan nan nan nan nan nan nan nan nan nan nan nan nan nan nan nan nan nan nan nan nan nan nan nan nan nan nan nan nan nan nan nan nan nan nan nan nan nan nan nan nan nan nan nan nan nan nan nan nan nan 224 231 232 230 233 235 236 243 nan nan nan nan nan nan nan nan nan nan nan nan nan nan
nan nan nan nan nan nan nan nan nan nan nan nan nan nan nan nan nan nan nan nan nan nan nan nan nan nan nan nan nan nan nan nan nan nan nan nan nan nan nan nan nan nan nan nan nan nan nan nan nan nan nan nan nan nan nan nan nan nan nan nan nan nan nan nan nan nan nan nan nan nan nan nan nan nan nan nan 227 233 231 232 233 230 233 243 nan nan nan nan nan nan nan nan nan nan nan nan nan
nan nan nan nan nan nan nan nan nan nan nan nan nan nan nan nan nan nan nan nan nan nan nan nan nan nan nan nan nan nan nan nan nan nan nan nan nan nan nan nan nan nan nan nan nan nan nan nan nan nan nan nan nan nan nan nan nan nan nan nan nan nan nan nan nan nan nan nan nan nan nan nan nan nan nan nan nan 224 227 230 231 226 227 233 nan nan nan nan nan nan nan nan nan nan nan nan nan
nan nan nan nan nan nan nan nan nan nan nan nan nan nan nan nan nan nan nan nan nan nan nan nan nan nan nan nan nan nan nan nan nan nan nan nan nan nan nan nan nan nan nan nan nan nan nan nan nan nan nan nan nan nan nan nan nan nan nan nan nan nan nan nan nan nan nan nan nan nan nan nan nan nan nan nan nan nan 221 228 230 227 224 nan nan 235 nan nan nan nan nan nan nan nan nan nan nan
nan nan nan nan nan nan nan nan nan nan nan nan nan nan nan nan nan nan nan nan nan nan nan nan nan nan nan nan nan nan nan nan nan nan nan nan nan nan nan nan nan nan nan nan nan nan nan nan nan nan nan nan nan nan nan nan nan nan nan nan nan nan nan nan nan nan nan nan nan nan nan nan nan nan nan nan nan nan 205 220 229 228 224 226 nan 238 nan nan nan nan nan nan nan nan nan nan nan
nan nan nan nan nan nan nan nan nan nan nan nan nan nan nan nan nan nan nan nan nan nan nan nan nan nan nan nan nan nan nan nan nan nan nan nan nan nan nan nan nan nan nan nan nan nan nan nan nan nan nan nan nan nan nan nan nan nan nan nan nan nan nan nan nan nan nan nan nan nan nan nan nan nan nan nan nan nan nan 208 221 223 222 227 231 nan nan nan nan nan nan nan nan nan nan nan nan
nan nan nan nan nan nan nan nan nan nan nan nan nan nan nan nan nan nan nan nan nan nan nan nan nan nan nan nan nan nan nan nan nan nan nan nan nan nan nan nan nan nan nan nan nan nan nan nan nan nan nan nan nan nan nan nan nan nan nan nan nan nan nan nan nan nan nan nan nan nan nan nan nan nan nan nan nan nan nan nan 208 219 220 220 222 226 nan nan nan nan nan nan nan nan nan nan nan
nan nan nan nan nan nan nan nan nan nan nan nan nan nan nan nan nan nan nan nan nan nan nan nan nan nan nan nan nan nan nan nan nan nan nan nan nan nan nan nan nan nan nan nan nan nan nan nan nan nan nan nan nan nan nan nan nan nan nan nan nan nan nan nan nan nan nan nan nan nan nan nan nan nan nan nan nan nan nan nan 197 208 219 218 220 nan nan nan nan nan nan nan nan nan nan nan nan
nan nan nan nan nan nan nan nan nan nan nan nan nan nan nan nan nan nan nan nan nan nan nan nan nan nan nan nan nan nan nan nan nan nan nan nan nan nan nan nan nan nan nan nan nan nan nan nan nan nan nan nan nan nan nan nan nan nan nan nan nan nan nan nan nan nan nan nan nan nan nan nan nan nan nan nan nan nan nan nan nan nan 210 216 220 227 nan nan nan nan nan nan nan nan nan nan nan
nan nan nan nan nan nan nan nan nan nan nan nan nan nan nan nan nan nan nan nan nan nan nan nan nan nan nan nan nan nan nan nan nan nan nan nan nan nan nan nan nan nan nan nan nan nan nan nan nan nan nan nan nan nan nan nan nan nan nan nan nan nan nan nan nan nan nan nan nan nan nan nan nan nan nan nan nan nan nan nan nan nan nan 210 216 nan nan nan nan nan nan nan nan nan nan nan nan
nan nan nan nan nan nan nan nan nan nan nan nan nan nan nan nan nan nan nan nan nan nan nan nan nan nan nan nan nan nan nan nan nan nan nan nan nan nan nan nan nan nan nan nan nan nan nan nan nan nan nan nan nan nan nan nan nan nan nan nan nan nan nan nan nan nan nan nan nan nan nan nan nan nan nan nan nan nan nan nan nan nan 201 nan nan 220 nan nan nan nan nan nan nan nan nan nan nan
nan nan nan nan nan nan nan nan nan nan nan nan nan nan nan nan nan nan nan nan nan nan nan nan nan nan nan nan nan nan nan nan nan nan nan nan nan nan nan nan nan nan nan nan nan nan nan nan nan nan nan nan nan nan nan nan nan nan nan nan nan nan nan nan nan nan nan nan nan nan nan nan nan nan nan nan nan nan nan nan nan nan nan 205 nan nan nan nan nan nan nan nan nan nan nan nan nan
nan nan nan nan nan nan nan nan nan nan nan nan nan nan nan nan nan nan nan nan nan nan nan nan nan nan nan nan nan nan nan nan nan nan nan nan nan nan nan nan nan nan nan nan nan nan nan nan nan nan nan nan nan nan nan nan nan nan nan nan nan nan nan nan nan nan nan nan nan nan nan nan nan nan nan nan nan nan nan nan nan nan nan nan nan nan nan nan nan nan nan nan nan nan nan nan nan
nan nan nan nan nan nan nan nan nan nan nan nan nan nan nan nan nan nan nan nan nan nan nan nan nan nan nan nan nan nan nan nan nan nan nan nan nan nan nan nan nan nan nan nan nan nan nan nan nan nan nan nan nan nan nan nan nan nan nan nan nan nan nan nan nan nan nan nan nan nan nan nan nan nan nan nan nan nan nan nan nan nan nan nan 202 nan nan nan nan nan nan nan nan nan nan nan nan
nan nan nan nan nan nan nan nan nan nan nan nan nan nan nan nan nan nan nan nan nan nan nan nan nan nan nan nan nan nan nan nan nan nan nan nan nan nan nan nan nan nan nan nan nan nan nan nan nan nan nan nan nan nan nan nan nan nan nan nan nan nan nan nan nan nan nan nan nan nan nan nan nan nan nan nan nan nan nan nan nan nan nan nan nan nan nan nan nan nan nan nan nan nan nan nan nan
nan nan nan nan nan nan nan nan nan nan nan nan nan nan nan nan nan nan nan nan nan nan nan nan nan nan nan nan nan nan nan nan nan nan nan nan nan nan nan nan nan nan nan nan nan nan nan nan nan nan nan nan nan nan nan nan nan nan nan nan nan nan nan nan nan nan nan nan nan nan nan nan nan nan nan nan nan nan nan nan nan nan nan nan nan nan nan nan nan nan nan nan nan nan nan nan nan